Location: Unspecified
(0.0000°N, 0.0000°E)
Time: 10:08:19
(UTC+00:00)

Courier 1B Rocket - Pass Details

Date: 28 May 2026
Orbit: 920 x 1201 km, 28.2° (Epoch: 9 June)

Event Time Altitude Azimuth Distance (km) Brightness Sun altitude
Rises 13:24:14 0° 255° (WSW) 3,626 8.2 59.8°
Reaches altitude 10° 13:28:26 10° 229° (SW) 2,734 7.5 59.1°
Maximum altitude 13:31:32 14° 201° (SSW) 2,527 7.2 58.5°
Drops below altitude 10° 13:34:43 10° 173° (S) 2,828 7.3 57.9°
Sets 13:39:14 0° 148° (SSE) 3,854 7.8 57.1°
